Time,TemperatureF,DewpointF,PressureIn,WindDirection,WindDirectionDegrees,WindSpeedMPH,WindSpeedGustMPH,Humidity,HourlyPrecipIn,Conditions,Clouds,dailyrainin,SoftwareType,DateUTC
2013-10-17 00:13:00,45.0,29.0,26.60,NNW,327,6.0,13.0,53,0.00,,,0.00,,2013-10-17 06:13:00,
2013-10-17 00:22:00,44.0,28.0,26.60,NW,311,6.0,10.0,53,0.00,,,0.00,,2013-10-17 06:22:00,
2013-10-17 00:42:00,43.0,27.0,26.60,NW,325,2.0,6.0,53,0.00,,,0.00,,2013-10-17 06:42:00,
2013-10-17 00:52:00,43.0,27.0,26.60,NW,325,3.0,5.0,52,0.00,,,0.00,,2013-10-17 06:52:00,
2013-10-17 01:02:00,43.0,27.0,26.60,NW,325,3.0,5.0,52,0.00,,,0.00,,2013-10-17 07:02:00,
2013-10-17 01:11:00,43.0,27.0,26.60,NNW,329,3.0,7.0,52,0.00,,,0.00,,2013-10-17 07:11:00,
2013-10-17 01:22:00,43.0,26.0,26.61,NNW,329,4.0,5.0,51,0.00,,,0.00,,2013-10-17 07:22:00,
2013-10-17 01:43:00,43.0,26.0,26.61,NNW,329,2.0,5.0,50,0.00,,,0.00,,2013-10-17 07:43:00,
2013-10-17 01:52:00,43.0,25.0,26.61,West,277,9.0,12.0,48,0.00,,,0.00,,2013-10-17 07:52:00,
2013-10-17 02:11:00,44.0,26.0,26.62,NNE,24,7.0,13.0,49,0.00,,,0.00,,2013-10-17 08:11:00,
2013-10-17 09:43:00,37.0,20.0,26.74,NW,326,15.0,26.0,50,0.00,,,0.00,,2013-10-17 15:43:00,
2013-10-17 09:53:00,37.0,20.0,26.75,NW,322,10.0,21.0,50,0.00,,,0.00,,2013-10-17 15:53:00,
2013-10-17 10:12:00,37.0,20.0,26.74,NNW,345,10.0,21.0,50,0.00,,,0.00,,2013-10-17 16:12:00,
2013-10-17 10:23:00,37.0,20.0,26.75,NNW,335,12.0,21.0,50,0.00,,,0.00,,2013-10-17 16:23:00,
2013-10-17 10:42:00,37.0,20.0,26.75,NW,313,12.0,22.0,50,0.00,,,0.00,,2013-10-17 16:42:00,
2013-10-17 10:53:00,37.0,20.0,26.75,North,360,11.0,19.0,50,0.00,,,0.00,,2013-10-17 16:53:00,
2013-10-17 11:12:00,37.0,21.0,26.75,WNW,296,8.0,16.0,51,0.00,,,0.00,,2013-10-17 17:12:00,
2013-10-17 11:22:00,37.0,21.0,26.75,WNW,303,9.0,16.0,51,0.00,,,0.00,,2013-10-17 17:22:00,
2013-10-17 11:42:00,37.0,21.0,26.75,NNW,340,11.0,18.0,51,0.00,,,0.00,,2013-10-17 17:42:00,
2013-10-17 11:53:00,38.0,21.0,26.74,NNW,334,9.0,16.0,50,0.00,,,0.00,,2013-10-17 17:53:00,
2013-10-17 12:11:00,38.0,21.0,26.74,North,355,9.0,19.0,50,0.00,,,0.00,,2013-10-17 18:11:00,
2013-10-17 12:21:00,38.0,21.0,26.74,WNW,294,9.0,16.0,50,0.00,,,0.00,,2013-10-17 18:21:00,
2013-10-17 12:42:00,38.0,21.0,26.74,North,360,12.0,18.0,50,0.00,,,0.00,,2013-10-17 18:42:00,
2013-10-17 12:52:00,38.0,21.0,26.73,NW,325,11.0,21.0,50,0.00,,,0.00,,2013-10-17 18:52:00,
2013-10-17 13:11:00,39.0,22.0,26.72,NNW,348,12.0,19.0,50,0.00,,,0.00,,2013-10-17 19:11:00,
2013-10-17 13:22:00,39.0,22.0,26.72,North,355,9.0,20.0,50,0.00,,,0.00,,2013-10-17 19:22:00,
2013-10-17 13:42:00,40.0,22.0,26.71,NW,322,10.0,18.0,49,0.00,,,0.00,,2013-10-17 19:42:00,
2013-10-17 13:53:00,40.0,22.0,26.70,North,349,12.0,21.0,49,0.00,,,0.00,,2013-10-17 19:53:00,
2013-10-17 14:11:00,40.0,22.0,26.70,NNW,338,9.0,19.0,49,0.00,,,0.00,,2013-10-17 20:11:00,
2013-10-17 14:22:00,41.0,23.0,26.70,NNW,338,10.0,14.0,48,0.00,,,0.00,,2013-10-17 20:22:00,
2013-10-17 14:42:00,40.0,22.0,26.70,North,360,10.0,15.0,49,0.00,,,0.00,,2013-10-17 20:42:00,
2013-10-17 14:52:00,40.0,23.0,26.70,NNE,17,10.0,16.0,50,0.00,,,0.00,,2013-10-17 20:52:00,
2013-10-17 15:11:00,41.0,23.0,26.70,NNW,342,9.0,16.0,49,0.00,,,0.00,,2013-10-17 21:11:00,
2013-10-17 15:22:00,42.0,23.0,26.69,NNW,334,10.0,16.0,46,0.00,,,0.00,,2013-10-17 21:22:00,
2013-10-17 15:44:00,40.0,23.0,26.70,NNE,31,13.0,20.0,50,0.00,,,0.00,,2013-10-17 21:44:00,
2013-10-17 15:54:00,41.0,24.0,26.70,NE,45,10.0,16.0,50,0.00,,,0.00,,2013-10-17 21:54:00,
2013-10-17 16:14:00,40.0,23.0,26.69,NNE,30,12.0,18.0,50,0.00,,,0.00,,2013-10-17 22:14:00,
2013-10-17 16:24:00,40.0,23.0,26.69,North,355,11.0,20.0,50,0.00,,,0.00,,2013-10-17 22:24:00,
2013-10-17 16:43:00,40.0,23.0,26.70,NNE,28,9.0,16.0,50,0.00,,,0.00,,2013-10-17 22:43:00,
2013-10-17 16:53:00,40.0,23.0,26.70,North,355,8.0,16.0,50,0.00,,,0.00,,2013-10-17 22:53:00,
2013-10-17 17:13:00,40.0,23.0,26.70,North,360,10.0,15.0,50,0.00,,,0.00,,2013-10-17 23:13:00,
2013-10-17 17:22:00,40.0,23.0,26.70,North,355,8.0,14.0,50,0.00,,,0.00,,2013-10-17 23:22:00,
2013-10-17 17:43:00,40.0,23.0,26.70,North,351,8.0,11.0,50,0.00,,,0.00,,2013-10-17 23:43:00,
2013-10-17 17:53:00,40.0,23.0,26.70,NW,321,7.0,10.0,50,0.00,,,0.00,,2013-10-17 23:53:00,
2013-10-17 18:12:00,39.0,22.0,26.70,NNE,27,6.0,9.0,51,0.00,,,0.00,,2013-10-18 00:12:00,
2013-10-17 18:22:00,39.0,22.0,26.70,North,5,4.0,7.0,51,0.00,,,0.00,,2013-10-18 00:22:00,
2013-10-17 18:42:00,39.0,22.0,26.70,North,360,5.0,7.0,51,0.00,,,0.00,,2013-10-18 00:42:00,
2013-10-17 18:53:00,39.0,22.0,26.70,North,360,4.0,5.0,51,0.00,,,0.00,,2013-10-18 00:53:00,
2013-10-17 19:12:00,39.0,22.0,26.70,North,355,3.0,6.0,51,0.00,,,0.00,,2013-10-18 01:12:00,
2013-10-17 19:21:00,39.0,22.0,26.70,North,355,2.0,6.0,51,0.00,,,0.00,,2013-10-18 01:21:00,
2013-10-17 19:42:00,38.0,22.0,26.70,North,355,1.0,5.0,51,0.00,,,0.00,,2013-10-18 01:42:00,
2013-10-17 19:52:00,37.0,21.0,26.70,North,355,1.0,5.0,51,0.00,,,0.00,,2013-10-18 01:52:00,
2013-10-17 20:11:00,37.0,21.0,26.70,North,355,1.0,4.0,51,0.00,,,0.00,,2013-10-18 02:11:00,
2013-10-17 20:22:00,37.0,21.0,26.70,North,355,0.0,2.0,51,0.00,,,0.00,,2013-10-18 02:22:00,
2013-10-17 20:42:00,37.0,21.0,26.70,North,355,0.0,1.0,51,0.00,,,0.00,,2013-10-18 02:42:00,
2013-10-17 20:52:00,37.0,21.0,26.70,North,355,0.0,0.0,51,0.00,,,0.00,,2013-10-18 02:52:00,
2013-10-17 21:11:00,37.0,21.0,26.70,North,355,3.0,5.0,51,0.00,,,0.00,,2013-10-18 03:11:00,
2013-10-17 21:22:00,36.0,20.0,26.70,North,355,1.0,4.0,51,0.00,,,0.00,,2013-10-18 03:22:00,
2013-10-17 21:55:00,36.0,20.0,26.70,North,355,0.0,4.0,51,0.00,,,0.00,,2013-10-18 03:55:00,
2013-10-17 22:14:00,37.0,21.0,26.70,North,355,1.0,2.0,51,0.00,,,0.00,,2013-10-18 04:14:00,
2013-10-17 22:24:00,36.0,20.0,26.70,North,355,3.0,6.0,51,0.00,,,0.00,,2013-10-18 04:24:00,
2013-10-17 22:43:00,36.0,20.0,26.70,West,273,5.0,8.0,51,0.00,,,0.00,,2013-10-18 04:43:00,
2013-10-17 22:53:00,36.0,20.0,26.70,West,267,3.0,8.0,51,0.00,,,0.00,,2013-10-18 04:53:00,
2013-10-17 23:13:00,36.0,20.0,26.70,West,267,1.0,5.0,51,0.00,,,0.00,,2013-10-18 05:13:00,
2013-10-17 23:23:00,36.0,20.0,26.70,West,267,1.0,4.0,51,0.00,,,0.00,,2013-10-18 05:23:00,
2013-10-17 23:43:00,36.0,20.0,26.70,WSW,250,6.0,7.0,51,0.00,,,0.00,,2013-10-18 05:43:00,
2013-10-17 23:52:00,36.0,20.0,26.70,West,265,2.0,8.0,51,0.00,,,0.00,,2013-10-18 05:52:00,